Location: ??
(34.7252°N, 135.5457°E)
Time: 07:36:32
(UTC+00:00)

Cosmos 2322 Rocket - Pass Details

Date: 24 September 2020
Orbit: 831 x 852 km, 71.0° (Epoch: 28 October)

Event Time Altitude Azimuth Distance (km) Brightness Sun altitude
Exits shadow 20:06:34 - 288° (WNW) 2,558 4.1 -9.3°
Reaches altitude 10° 20:07:28 10° 297° (WNW) 2,471 4.1 -9.1°
Maximum altitude 20:08:38 11° 309° (NW) 2,432 4.2 -8.9°
Drops below altitude 10° 20:09:48 10° 321° (NW) 2,476 4.3 -8.7°
Sets 20:14:49 0° 359° (N) 3,421 5.4 -7.6°
